Time,TemperatureF,DewpointF,PressureIn,WindDirection,WindDirectionDegrees,WindSpeedMPH,WindSpeedGustMPH,Humidity,HourlyPrecipIn,Conditions,Clouds,dailyrainin,SoftwareType,DateUTC
2013-03-03 00:02:00,27.0,10.0,-100.00,ESE,110,2.0,4.0,50,0.00,,,0.00,,2013-03-03 00:02:00,
2013-03-03 00:11:00,26.0,10.0,-100.00,SSW,200,2.0,4.0,51,0.00,,,0.00,,2013-03-03 00:11:00,
2013-03-03 00:22:00,25.0,10.0,-100.00,South,190,3.0,4.0,55,0.00,,,0.00,,2013-03-03 00:22:00,
2013-03-03 00:32:00,25.0,10.0,-100.00,SSW,210,2.0,3.0,56,0.00,,,0.00,,2013-03-03 00:32:00,
2013-03-03 00:42:00,24.0,10.0,-100.00,SSW,195,3.0,4.0,58,0.00,,,0.00,,2013-03-03 00:42:00,
2013-03-03 00:52:00,24.0,12.0,-100.00,SW,215,2.0,4.0,59,0.00,,,0.00,,2013-03-03 00:52:00,
2013-03-03 01:01:00,23.0,12.0,-100.00,WSW,240,2.0,3.0,63,0.00,,,0.00,,2013-03-03 01:01:00,
2013-03-03 01:11:00,23.0,12.0,-100.00,SW,230,3.0,3.0,64,0.00,,,0.00,,2013-03-03 01:11:00,
2013-03-03 01:21:00,23.0,14.0,-100.00,South,170,3.0,4.0,67,0.00,,,0.00,,2013-03-03 01:21:00,
2013-03-03 01:31:00,23.0,14.0,-100.00,South,185,3.0,5.0,67,0.00,,,0.00,,2013-03-03 01:31:00,
2013-03-03 01:41:00,23.0,14.0,-100.00,South,185,4.0,4.0,67,0.00,,,0.00,,2013-03-03 01:41:00,
2013-03-03 01:52:00,23.0,14.0,-100.00,SSW,200,4.0,6.0,67,0.00,,,0.00,,2013-03-03 01:52:00,
2013-03-03 02:01:00,23.0,14.0,-100.00,SSW,210,2.0,5.0,69,0.00,,,0.00,,2013-03-03 02:01:00,
2013-03-03 02:11:00,23.0,14.0,-100.00,South,190,1.0,3.0,69,0.00,,,0.00,,2013-03-03 02:11:00,
2013-03-03 02:21:00,23.0,14.0,-100.00,South,185,3.0,3.0,69,0.00,,,0.00,,2013-03-03 02:21:00,
2013-03-03 02:32:00,22.0,14.0,-100.00,SSW,195,3.0,4.0,69,0.00,,,0.00,,2013-03-03 02:32:00,
2013-03-03 02:41:00,22.0,14.0,-100.00,SW,225,1.0,3.0,70,0.00,,,0.00,,2013-03-03 02:41:00,
2013-03-03 02:52:00,22.0,14.0,-100.00,SSW,210,3.0,4.0,71,0.00,,,0.00,,2013-03-03 02:52:00,
2013-03-03 03:01:00,21.0,14.0,-100.00,SW,225,3.0,4.0,72,0.00,,,0.00,,2013-03-03 03:01:00,
2013-03-03 03:11:00,21.0,14.0,-100.00,WSW,240,2.0,4.0,72,0.00,,,0.00,,2013-03-03 03:11:00,
2013-03-03 03:21:00,21.0,14.0,-100.00,SW,215,3.0,5.0,75,0.00,,,0.00,,2013-03-03 03:21:00,
2013-03-03 03:31:00,22.0,16.0,-100.00,SSW,195,2.0,4.0,76,0.00,,,0.00,,2013-03-03 03:31:00,
2013-03-03 03:41:00,22.0,16.0,-100.00,SSW,195,2.0,4.0,76,0.00,,,0.00,,2013-03-03 03:41:00,
2013-03-03 03:51:00,22.0,16.0,-100.00,South,185,2.0,4.0,76,0.00,,,0.00,,2013-03-03 03:51:00,
2013-03-03 04:01:00,22.0,16.0,-100.00,SSW,195,2.0,2.0,76,0.00,,,0.00,,2013-03-03 04:01:00,
2013-03-03 04:11:00,22.0,16.0,-100.00,SSW,195,2.0,3.0,76,0.00,,,0.00,,2013-03-03 04:11:00,
2013-03-03 04:21:00,22.0,16.0,-100.00,SSE,165,1.0,2.0,77,0.00,,,0.00,,2013-03-03 04:21:00,
2013-03-03 04:31:00,22.0,16.0,-100.00,SSE,155,1.0,2.0,77,0.00,,,0.00,,2013-03-03 04:31:00,
2013-03-03 04:41:00,22.0,16.0,-100.00,South,190,2.0,3.0,77,0.00,,,0.00,,2013-03-03 04:41:00,
2013-03-03 04:51:00,22.0,16.0,-100.00,SSW,205,4.0,5.0,76,0.00,,,0.00,,2013-03-03 04:51:00,
2013-03-03 05:02:00,22.0,16.0,-100.00,South,175,2.0,5.0,76,0.00,,,0.00,,2013-03-03 05:02:00,
2013-03-03 05:11:00,22.0,16.0,-100.00,South,175,4.0,5.0,76,0.00,,,0.00,,2013-03-03 05:11:00,
2013-03-03 05:22:00,22.0,16.0,-100.00,South,180,5.0,6.0,75,0.00,,,0.00,,2013-03-03 05:22:00,
2013-03-03 05:32:00,22.0,16.0,-100.00,South,180,4.0,7.0,74,0.00,,,0.00,,2013-03-03 05:32:00,
2013-03-03 05:42:00,22.0,14.0,-100.00,South,170,4.0,6.0,73,0.00,,,0.00,,2013-03-03 05:42:00,
2013-03-03 05:52:00,22.0,14.0,-100.00,SE,145,3.0,6.0,73,0.00,,,0.00,,2013-03-03 05:52:00,
2013-03-03 06:02:00,22.0,14.0,-100.00,SE,145,4.0,4.0,72,0.00,,,0.00,,2013-03-03 06:02:00,
2013-03-03 06:11:00,22.0,14.0,-100.00,SSE,160,4.0,7.0,72,0.00,,,0.00,,2013-03-03 06:11:00,
2013-03-03 06:21:00,22.0,14.0,-100.00,South,170,4.0,7.0,72,0.00,,,0.00,,2013-03-03 06:21:00,
2013-03-03 06:31:00,22.0,14.0,-100.00,SSE,165,6.0,7.0,71,0.00,,,0.00,,2013-03-03 06:31:00,
2013-03-03 06:42:00,22.0,14.0,-100.00,South,170,6.0,7.0,71,0.00,,,0.00,,2013-03-03 06:42:00,
2013-03-03 06:52:00,22.0,14.0,-100.00,SSE,160,5.0,7.0,71,0.00,,,0.00,,2013-03-03 06:52:00,
2013-03-03 07:01:00,22.0,14.0,-100.00,SE,145,4.0,7.0,71,0.00,,,0.00,,2013-03-03 07:01:00,
2013-03-03 07:11:00,22.0,14.0,-100.00,SE,140,4.0,7.0,72,0.00,,,0.00,,2013-03-03 07:11:00,
2013-03-03 07:21:00,22.0,14.0,-100.00,SE,140,4.0,7.0,73,0.00,,,0.00,,2013-03-03 07:21:00,
2013-03-03 07:31:00,22.0,14.0,-100.00,SE,135,5.0,7.0,73,0.00,,,0.00,,2013-03-03 07:31:00,
2013-03-03 07:42:00,22.0,14.0,-100.00,ESE,120,4.0,7.0,73,0.00,,,0.00,,2013-03-03 07:42:00,
2013-03-03 07:51:00,22.0,14.0,-100.00,SE,130,2.0,4.0,74,0.00,,,0.00,,2013-03-03 07:51:00,
2013-03-03 08:01:00,22.0,14.0,-100.00,ESE,120,3.0,4.0,74,0.00,,,0.00,,2013-03-03 08:01:00,
2013-03-03 08:11:00,22.0,16.0,-100.00,ESE,115,3.0,4.0,74,0.00,,,0.00,,2013-03-03 08:11:00,
2013-03-03 08:21:00,22.0,14.0,-100.00,ESE,115,4.0,5.0,74,0.00,,,0.00,,2013-03-03 08:21:00,
2013-03-03 08:31:00,22.0,14.0,-100.00,SE,135,4.0,6.0,74,0.00,,,0.00,,2013-03-03 08:31:00,
2013-03-03 08:41:00,21.0,14.0,-100.00,SE,140,3.0,6.0,75,0.00,,,0.00,,2013-03-03 08:41:00,
2013-03-03 08:53:00,21.0,14.0,-100.00,SE,130,4.0,4.0,75,0.00,,,0.00,,2013-03-03 08:53:00,
2013-03-03 09:01:00,21.0,14.0,-100.00,SE,130,3.0,4.0,75,0.00,,,0.00,,2013-03-03 09:01:00,
2013-03-03 09:11:00,21.0,14.0,-100.00,ESE,110,3.0,5.0,75,0.00,,,0.00,,2013-03-03 09:11:00,
2013-03-03 09:21:00,21.0,14.0,-100.00,SE,125,4.0,5.0,75,0.00,,,0.00,,2013-03-03 09:21:00,
2013-03-03 09:32:00,21.0,14.0,-100.00,SE,130,4.0,6.0,76,0.00,,,0.00,,2013-03-03 09:32:00,
2013-03-03 09:41:00,21.0,14.0,-100.00,ESE,120,4.0,6.0,76,0.00,,,0.00,,2013-03-03 09:41:00,
2013-03-03 09:51:00,21.0,14.0,-100.00,SE,140,4.0,6.0,76,0.00,,,0.00,,2013-03-03 09:51:00,
2013-03-03 10:01:00,21.0,14.0,-100.00,SE,140,4.0,7.0,76,0.00,,,0.00,,2013-03-03 10:01:00,
2013-03-03 10:11:00,21.0,14.0,-100.00,SE,130,4.0,6.0,76,0.00,,,0.00,,2013-03-03 10:11:00,
2013-03-03 10:21:00,21.0,14.0,-100.00,SE,135,4.0,5.0,76,0.00,,,0.00,,2013-03-03 10:21:00,
2013-03-03 10:32:00,21.0,14.0,-100.00,SE,130,4.0,6.0,76,0.00,,,0.00,,2013-03-03 10:32:00,
2013-03-03 10:42:00,21.0,14.0,-100.00,ESE,105,4.0,6.0,76,0.00,,,0.00,,2013-03-03 10:42:00,
2013-03-03 10:52:00,21.0,14.0,-100.00,SE,125,3.0,5.0,76,0.00,,,0.00,,2013-03-03 10:52:00,
2013-03-03 11:01:00,21.0,14.0,-100.00,ESE,120,4.0,6.0,76,0.00,,,0.00,,2013-03-03 11:01:00,
2013-03-03 11:11:00,20.0,14.0,-100.00,ESE,115,4.0,6.0,75,0.00,,,0.00,,2013-03-03 11:11:00,
2013-03-03 11:21:00,20.0,12.0,-100.00,ESE,115,4.0,6.0,74,0.00,,,0.00,,2013-03-03 11:21:00,
2013-03-03 11:32:00,19.0,12.0,-100.00,ESE,115,3.0,5.0,74,0.00,,,0.00,,2013-03-03 11:32:00,
2013-03-03 11:42:00,19.0,12.0,-100.00,ESE,115,4.0,6.0,75,0.00,,,0.00,,2013-03-03 11:42:00,
2013-03-03 11:52:00,19.0,12.0,-100.00,ESE,115,4.0,6.0,75,0.00,,,0.00,,2013-03-03 11:52:00,
2013-03-03 12:01:00,19.0,12.0,-100.00,SE,125,5.0,7.0,75,0.00,,,0.00,,2013-03-03 12:01:00,
2013-03-03 12:11:00,19.0,12.0,-100.00,ESE,120,3.0,7.0,75,0.00,,,0.00,,2013-03-03 12:11:00,
2013-03-03 12:21:00,19.0,12.0,-100.00,ESE,115,6.0,7.0,74,0.00,,,0.00,,2013-03-03 12:21:00,
2013-03-03 12:32:00,19.0,10.0,-100.00,ESE,110,6.0,7.0,72,0.00,,,0.00,,2013-03-03 12:32:00,
2013-03-03 12:42:00,19.0,10.0,-100.00,ESE,120,5.0,7.0,71,0.00,,,0.00,,2013-03-03 12:42:00,
2013-03-03 12:52:00,19.0,10.0,-100.00,ESE,115,5.0,7.0,71,0.00,,,0.00,,2013-03-03 12:52:00,
2013-03-03 13:01:00,19.0,10.0,-100.00,ESE,105,3.0,6.0,71,0.00,,,0.00,,2013-03-03 13:01:00,
2013-03-03 13:11:00,19.0,10.0,-100.00,ESE,105,4.0,6.0,71,0.00,,,0.00,,2013-03-03 13:11:00,
2013-03-03 13:21:00,18.0,10.0,-100.00,ESE,105,4.0,6.0,72,0.00,,,0.00,,2013-03-03 13:21:00,
2013-03-03 13:32:00,19.0,10.0,-100.00,ESE,110,4.0,5.0,73,0.00,,,0.00,,2013-03-03 13:32:00,
2013-03-03 13:42:00,19.0,12.0,-100.00,ESE,110,4.0,6.0,73,0.00,,,0.00,,2013-03-03 13:42:00,
2013-03-03 13:51:00,19.0,12.0,-100.00,ESE,110,5.0,7.0,73,0.00,,,0.00,,2013-03-03 13:51:00,
2013-03-03 14:02:00,20.0,12.0,-100.00,ESE,115,6.0,8.0,73,0.00,,,0.00,,2013-03-03 14:02:00,
2013-03-03 14:11:00,20.0,12.0,-100.00,SE,125,6.0,9.0,73,0.00,,,0.00,,2013-03-03 14:11:00,
2013-03-03 14:21:00,21.0,14.0,-100.00,ESE,115,7.0,9.0,73,0.00,,,0.00,,2013-03-03 14:21:00,
2013-03-03 14:32:00,21.0,14.0,-100.00,ESE,120,8.0,11.0,73,0.00,,,0.00,,2013-03-03 14:32:00,
2013-03-03 14:42:00,22.0,14.0,-100.00,ESE,110,11.0,16.0,72,0.00,,,0.00,,2013-03-03 14:42:00,
2013-03-03 14:52:00,22.0,14.0,-100.00,SE,125,7.0,15.0,71,0.00,,,0.00,,2013-03-03 14:52:00,
2013-03-03 15:01:00,22.0,14.0,-100.00,SE,130,8.0,11.0,71,0.00,,,0.00,,2013-03-03 15:01:00,
2013-03-03 15:11:00,23.0,14.0,-100.00,SE,125,8.0,11.0,70,0.00,,,0.00,,2013-03-03 15:11:00,
2013-03-03 15:22:00,23.0,14.0,-100.00,SE,130,11.0,14.0,69,0.00,,,0.00,,2013-03-03 15:22:00,
2013-03-03 15:32:00,23.0,14.0,-100.00,SE,125,11.0,16.0,68,0.00,,,0.00,,2013-03-03 15:32:00,
2013-03-03 15:42:00,24.0,14.0,-100.00,SE,125,11.0,16.0,68,0.00,,,0.00,,2013-03-03 15:42:00,
2013-03-03 15:51:00,24.0,14.0,-100.00,SE,130,11.0,15.0,67,0.00,,,0.00,,2013-03-03 15:51:00,
2013-03-03 16:01:00,25.0,16.0,-100.00,ESE,115,11.0,16.0,65,0.00,,,0.00,,2013-03-03 16:01:00,
2013-03-03 16:12:00,25.0,16.0,-100.00,SE,125,12.0,16.0,65,0.00,,,0.00,,2013-03-03 16:12:00,
2013-03-03 16:21:00,26.0,16.0,-100.00,SE,145,11.0,17.0,65,0.00,,,0.00,,2013-03-03 16:21:00,
2013-03-03 16:31:00,26.0,14.0,-100.00,SE,145,14.0,20.0,63,0.00,,,0.00,,2013-03-03 16:31:00,
2013-03-03 16:42:00,26.0,14.0,-100.00,SE,135,11.0,19.0,62,0.00,,,0.00,,2013-03-03 16:42:00,
2013-03-03 16:52:00,27.0,14.0,-100.00,ESE,115,12.0,18.0,61,0.00,,,0.00,,2013-03-03 16:52:00,
2013-03-03 17:01:00,26.0,14.0,-100.00,SE,125,14.0,21.0,60,0.00,,,0.00,,2013-03-03 17:01:00,
2013-03-03 17:11:00,27.0,14.0,-100.00,ESE,120,12.0,21.0,59,0.00,,,0.00,,2013-03-03 17:11:00,
2013-03-03 17:22:00,28.0,14.0,-100.00,ESE,120,13.0,19.0,56,0.00,,,0.00,,2013-03-03 17:22:00,
2013-03-03 17:32:00,27.0,12.0,-100.00,SE,140,14.0,19.0,54,0.00,,,0.00,,2013-03-03 17:32:00,
2013-03-03 17:42:00,29.0,14.0,-100.00,SE,125,14.0,17.0,54,0.00,,,0.00,,2013-03-03 17:42:00,
2013-03-03 17:52:00,29.0,14.0,-100.00,SE,125,16.0,19.0,53,0.00,,,0.00,,2013-03-03 17:52:00,
2013-03-03 18:01:00,30.0,14.0,-100.00,ESE,120,12.0,20.0,52,0.00,,,0.00,,2013-03-03 18:01:00,
2013-03-03 18:11:00,30.0,14.0,-100.00,ESE,115,14.0,20.0,52,0.00,,,0.00,,2013-03-03 18:11:00,
2013-03-03 18:21:00,30.0,14.0,-100.00,SE,130,14.0,21.0,52,0.00,,,0.00,,2013-03-03 18:21:00,
2013-03-03 18:32:00,31.0,14.0,-100.00,ESE,120,12.0,19.0,50,0.00,,,0.00,,2013-03-03 18:32:00,
2013-03-03 18:42:00,31.0,14.0,-100.00,SE,130,11.0,18.0,50,0.00,,,0.00,,2013-03-03 18:42:00,
2013-03-03 18:52:00,32.0,16.0,-100.00,ESE,105,10.0,20.0,50,0.00,,,0.00,,2013-03-03 18:52:00,
2013-03-03 19:01:00,32.0,14.0,-100.00,SE,125,11.0,18.0,49,0.00,,,0.00,,2013-03-03 19:01:00,
2013-03-03 19:11:00,32.0,14.0,-100.00,ESE,120,15.0,20.0,49,0.00,,,0.00,,2013-03-03 19:11:00,
2013-03-03 19:21:00,31.0,14.0,-100.00,ESE,110,12.0,19.0,48,0.00,,,0.00,,2013-03-03 19:21:00,
2013-03-03 19:32:00,32.0,14.0,-100.00,ESE,115,12.0,19.0,46,0.00,,,0.00,,2013-03-03 19:32:00,
2013-03-03 19:42:00,31.0,12.0,-100.00,SE,135,14.0,20.0,46,0.00,,,0.00,,2013-03-03 19:42:00,
2013-03-03 19:51:00,32.0,14.0,-100.00,SE,135,13.0,21.0,46,0.00,,,0.00,,2013-03-03 19:51:00,
2013-03-03 20:01:00,31.0,12.0,-100.00,SE,145,13.0,21.0,45,0.00,,,0.00,,2013-03-03 20:01:00,
2013-03-03 20:11:00,31.0,12.0,-100.00,SE,130,14.0,19.0,46,0.00,,,0.00,,2013-03-03 20:11:00,
2013-03-03 20:21:00,32.0,12.0,-100.00,SE,130,14.0,22.0,45,0.00,,,0.00,,2013-03-03 20:21:00,
2013-03-03 20:32:00,32.0,12.0,-100.00,SE,130,12.0,21.0,45,0.00,,,0.00,,2013-03-03 20:32:00,
2013-03-03 20:42:00,32.0,12.0,-100.00,SE,135,12.0,19.0,44,0.00,,,0.00,,2013-03-03 20:42:00,
2013-03-03 20:52:00,32.0,12.0,-100.00,SE,135,13.0,17.0,44,0.00,,,0.00,,2013-03-03 20:52:00,
2013-03-03 21:01:00,32.0,12.0,-100.00,SE,125,12.0,20.0,44,0.00,,,0.00,,2013-03-03 21:01:00,
2013-03-03 21:11:00,32.0,12.0,-100.00,SE,135,13.0,20.0,44,0.00,,,0.00,,2013-03-03 21:11:00,
2013-03-03 21:21:00,32.0,12.0,-100.00,SE,135,13.0,20.0,44,0.00,,,0.00,,2013-03-03 21:21:00,
2013-03-03 21:32:00,32.0,12.0,-100.00,SE,125,13.0,20.0,43,0.00,,,0.00,,2013-03-03 21:32:00,
2013-03-03 21:41:00,33.0,12.0,-100.00,SE,125,12.0,20.0,43,0.00,,,0.00,,2013-03-03 21:41:00,
2013-03-03 21:52:00,33.0,12.0,-100.00,SE,125,14.0,19.0,44,0.00,,,0.00,,2013-03-03 21:52:00,
2013-03-03 22:01:00,32.0,12.0,-100.00,ESE,120,14.0,21.0,43,0.00,,,0.00,,2013-03-03 22:01:00,
2013-03-03 22:11:00,32.0,12.0,-100.00,SE,125,15.0,22.0,44,0.00,,,0.00,,2013-03-03 22:11:00,
2013-03-03 22:22:00,32.0,12.0,-100.00,ESE,120,15.0,22.0,43,0.00,,,0.00,,2013-03-03 22:22:00,
2013-03-03 22:32:00,32.0,12.0,-100.00,SE,125,12.0,21.0,43,0.00,,,0.00,,2013-03-03 22:32:00,
2013-03-03 22:42:00,32.0,12.0,-100.00,ESE,120,10.0,17.0,43,0.00,,,0.00,,2013-03-03 22:42:00,
2013-03-03 22:52:00,32.0,12.0,-100.00,ESE,120,13.0,19.0,43,0.00,,,0.00,,2013-03-03 22:52:00,
2013-03-03 23:01:00,31.0,10.0,-100.00,SE,125,14.0,19.0,43,0.00,,,0.00,,2013-03-03 23:01:00,
2013-03-03 23:11:00,31.0,12.0,-100.00,SSE,150,11.0,19.0,44,0.00,,,0.00,,2013-03-03 23:11:00,
2013-03-03 23:21:00,31.0,10.0,-100.00,SE,125,10.0,16.0,44,0.00,,,0.00,,2013-03-03 23:21:00,
2013-03-03 23:31:00,31.0,12.0,-100.00,SE,130,9.0,17.0,45,0.00,,,0.00,,2013-03-03 23:31:00,
2013-03-03 23:41:00,31.0,12.0,-100.00,SE,130,10.0,17.0,45,0.00,,,0.00,,2013-03-03 23:41:00,
2013-03-03 23:52:00,31.0,12.0,-100.00,ESE,115,9.0,13.0,45,0.00,,,0.00,,2013-03-03 23:52:00,